sat.trackr.live / text

‹ back to catalog

SPACEMOBILE-005

NORAD 61046 · 2024-163B

PAYLOAD ACTIVE UNKNOWN

§ Identity

Operator
Country
US
Launch date
2024-09-12
Launch site
AFETR
Launch vehicle
Mass (kg)
RCS (m²)

External: N2YO · Heavens-Above · Gunter

§ Orbital elements

Epoch: 2026-09-22T01:53:24.114912Z

Period
94.71 min
Inclination
52.9715°
Eccentricity
0.0009809
Mean motion
15.20375726 rev/d
Perigee alt
498.0 km
Apogee alt
511.5 km
Semi-major
6,882.8 km
B*
1.7511e-4
RAAN
223.9553°
Arg perigee
48.7853°
Mean anomaly
311.3985°
Rev number
11,250

§ Raw data

SPACEMOBILE-0051 61046U 24163B   26265.07875133  .00003539  00000+0  17511-3 0  99952 61046  52.9715 223.9553 0009809  48.7853 311.3985 15.20375726112505

JSON: /api/v1/satellites/61046 · /tle

For live sub-satellite position, see the globe view (requires WebGL).

§ Visibility from observer

Set your observer location to see the next 7 days of passes ≥ 10°. The values pass through the URL so the page stays shareable.

No JS? Fill the form by hand. The geolocation button needs JavaScript.

§ Radio — SatNOGS DB

ModeDescriptionDownlinkUplink
GFSK Mode U - Transmitter 430.500 MHz
BPSK S-band telemetry 2.225 GHz
FM S-band telemetry 2.235 GHz

3 transmitters · refreshed weekly from db.satnogs.org